Simultaneous Nadir Overpasses (SNOs) Predictions

Prediction of SNOs between GOES-16 and METOP-C Satellite Orbit:

Table of predicted SNOs for the next 14.0 days since TLE Epoch: 2/17/2024
Index Date Time (GOES-16) GOES-16 Lat,Lon METOP-C Lat,Lon Distance(km) Time Diff (sec)
1 02/17/2024 14:23:57 0.03, -75.22 -0.28, -73.97 143.40 80
2 02/19/2024 02:45:38 -0.03, -75.21 -0.78, -78.56 382.41 80
3 02/20/2024 02:22:20 -0.03, -75.21 0.36, -73.58 187.00 80
4 02/21/2024 14:43:51 0.04, -75.24 0.67, -78.13 329.10 80
5 02/22/2024 14:20:32 0.04, -75.25 -0.42, -73.14 241.04 80
6 02/24/2024 02:42:13 -0.04, -75.26 -0.62, -77.73 283.00 80
7 02/25/2024 02:18:55 -0.04, -75.27 0.53, -72.75 287.58 80
8 02/26/2024 14:37:46 0.04, -75.32 0.49, -77.31 227.14 80
9 02/27/2024 14:17:07 0.04, -75.34 -0.66, -72.32 343.95 80
10 02/29/2024 02:38:48 -0.04, -75.35 -0.41, -76.91 178.75 80
11 03/01/2024 02:15:29 -0.04, -75.37 0.75, -71.93 392.40 80
